Time,TemperatureF,DewpointF,PressureIn,WindDirection,WindDirectionDegrees,WindSpeedMPH,WindSpeedGustMPH,Humidity,HourlyPrecipIn,Conditions,Clouds,dailyrainin,SolarRadiationWatts/m^2,SoftwareType,DateUTC
2013-04-30 00:01:00,52.8,46.1,30.32,SSW,213,0.0,1.0,78,0.00,,,0.00,0,Wunderground v.1.15,2013-04-30 04:01:00,
2013-04-30 00:06:00,52.7,46.0,30.32,SSE,155,1.0,2.0,78,0.00,,,0.00,0,Wunderground v.1.15,2013-04-30 04:06:00,
2013-04-30 00:11:00,52.7,46.0,30.32,South,189,0.0,0.0,78,0.00,,,0.00,0,Wunderground v.1.15,2013-04-30 04:11:00,
2013-04-30 00:16:00,52.7,46.0,30.32,South,189,0.0,1.0,78,0.00,,,0.00,0,Wunderground v.1.15,2013-04-30 04:16:00,
2013-04-30 00:21:00,52.6,45.9,30.32,South,176,1.0,2.0,78,0.00,,,0.00,0,Wunderground v.1.15,2013-04-30 04:21:00,
2013-04-30 00:26:00,52.6,45.9,30.32,South,177,0.0,2.0,78,0.00,,,0.00,0,Wunderground v.1.15,2013-04-30 04:26:00,
2013-04-30 00:31:00,52.5,46.2,30.32,ESE,119,0.0,1.0,79,0.00,,,0.00,0,Wunderground v.1.15,2013-04-30 04:31:00,
2013-04-30 00:37:00,52.5,46.2,30.32,ESE,119,1.0,2.0,79,0.00,,,0.00,0,Wunderground v.1.15,2013-04-30 04:37:00,
2013-04-30 00:42:00,52.4,46.1,30.32,ESE,119,0.0,0.0,79,0.00,,,0.00,0,Wunderground v.1.15,2013-04-30 04:42:00,
2013-04-30 00:47:00,52.3,46.0,30.32,ESE,113,2.0,2.0,79,0.00,,,0.00,0,Wunderground v.1.15,2013-04-30 04:47:00,
2013-04-30 00:52:00,52.2,45.9,30.32,ESE,113,0.0,0.0,79,0.00,,,0.00,0,Wunderground v.1.15,2013-04-30 04:52:00,
2013-04-30 00:57:00,52.1,46.1,30.32,ESE,113,0.0,1.0,80,0.00,,,0.00,0,Wunderground v.1.15,2013-04-30 04:57:00,
2013-04-30 01:02:00,52.1,46.1,30.32,ESE,113,0.0,0.0,80,0.00,,,0.00,0,Wunderground v.1.15,2013-04-30 05:02:00,
2013-04-30 01:07:00,52.1,46.1,30.32,ESE,113,0.0,1.0,80,0.00,,,0.00,0,Wunderground v.1.15,2013-04-30 05:07:00,
2013-04-30 01:12:00,52.1,46.1,30.32,ESE,106,0.0,1.0,80,0.00,,,0.00,0,Wunderground v.1.15,2013-04-30 05:12:00,
2013-04-30 01:17:00,52.1,45.8,30.32,ESE,106,0.0,1.0,79,0.00,,,0.00,0,Wunderground v.1.15,2013-04-30 05:17:00,
2013-04-30 01:22:00,52.1,46.1,30.32,ESE,106,0.0,1.0,80,0.00,,,0.00,0,Wunderground v.1.15,2013-04-30 05:22:00,
2013-04-30 01:27:00,52.1,46.1,30.32,ESE,106,0.0,1.0,80,0.00,,,0.00,0,Wunderground v.1.15,2013-04-30 05:27:00,
2013-04-30 01:32:00,52.1,46.1,30.32,ESE,106,2.0,2.0,80,0.00,,,0.00,0,Wunderground v.1.15,2013-04-30 05:32:00,
2013-04-30 01:36:00,52.1,46.1,30.32,ESE,106,0.0,2.0,80,0.00,,,0.00,0,Wunderground v.1.15,2013-04-30 05:36:00,
2013-04-30 01:41:00,52.1,46.1,30.32,ESE,106,0.0,2.0,80,0.00,,,0.00,0,Wunderground v.1.15,2013-04-30 05:41:00,
2013-04-30 01:46:00,52.1,46.4,30.31,ESE,106,0.0,2.0,81,0.00,,,0.00,0,Wunderground v.1.15,2013-04-30 05:46:00,
2013-04-30 01:52:00,52.0,46.0,30.32,ESE,106,0.0,1.0,80,0.00,,,0.00,0,Wunderground v.1.15,2013-04-30 05:52:00,
2013-04-30 01:57:00,52.0,46.0,30.31,ESE,106,0.0,1.0,80,0.00,,,0.00,0,Wunderground v.1.15,2013-04-30 05:57:00,
2013-04-30 02:02:00,52.0,46.0,30.32,ESE,106,0.0,0.0,80,0.00,,,0.00,0,Wunderground v.1.15,2013-04-30 06:02:00,
2013-04-30 02:07:00,52.0,46.3,30.31,ESE,106,0.0,0.0,81,0.00,,,0.00,0,Wunderground v.1.15,2013-04-30 06:07:00,
2013-04-30 02:12:00,51.9,46.3,30.31,ESE,106,0.0,0.0,81,0.00,,,0.00,0,Wunderground v.1.15,2013-04-30 06:12:00,
2013-04-30 02:17:00,51.8,46.2,30.31,ESE,106,0.0,0.0,81,0.00,,,0.00,0,Wunderground v.1.15,2013-04-30 06:17:00,
2013-04-30 02:22:00,51.8,46.2,30.31,ESE,106,0.0,0.0,81,0.00,,,0.00,0,Wunderground v.1.15,2013-04-30 06:22:00,
2013-04-30 02:27:00,51.7,46.4,30.31,ESE,106,0.0,0.0,82,0.00,,,0.00,0,Wunderground v.1.15,2013-04-30 06:27:00,
2013-04-30 02:32:00,51.7,46.4,30.31,ESE,106,0.0,1.0,82,0.00,,,0.00,0,Wunderground v.1.15,2013-04-30 06:32:00,
2013-04-30 02:37:00,51.6,46.3,30.31,ESE,106,0.0,1.0,82,0.00,,,0.00,0,Wunderground v.1.15,2013-04-30 06:37:00,
2013-04-30 02:42:00,51.7,46.4,30.31,ESE,106,0.0,0.0,82,0.00,,,0.00,0,Wunderground v.1.15,2013-04-30 06:42:00,
2013-04-30 02:47:00,51.7,46.4,30.31,ESE,106,0.0,0.0,82,0.00,,,0.00,0,Wunderground v.1.15,2013-04-30 06:47:00,
2013-04-30 02:52:00,51.7,46.4,30.31,ESE,106,0.0,0.0,82,0.00,,,0.00,0,Wunderground v.1.15,2013-04-30 06:52:00,
2013-04-30 02:57:00,51.7,46.4,30.31,ESE,106,0.0,1.0,82,0.00,,,0.00,0,Wunderground v.1.15,2013-04-30 06:57:00,
2013-04-30 03:02:00,51.6,46.6,30.31,ESE,106,0.0,1.0,83,0.00,,,0.00,0,Wunderground v.1.15,2013-04-30 07:02:00,
2013-04-30 03:07:00,51.5,46.8,30.31,ESE,106,0.0,2.0,84,0.00,,,0.00,0,Wunderground v.1.15,2013-04-30 07:07:00,
2013-04-30 03:12:00,51.4,46.7,30.31,ESE,106,0.0,1.0,84,0.00,,,0.00,0,Wunderground v.1.15,2013-04-30 07:12:00,
2013-04-30 03:17:00,51.3,46.9,30.31,ESE,106,1.0,2.0,85,0.00,,,0.00,0,Wunderground v.1.15,2013-04-30 07:17:00,
2013-04-30 03:22:00,51.2,46.8,30.31,ESE,106,1.0,2.0,85,0.00,,,0.00,0,Wunderground v.1.15,2013-04-30 07:22:00,
2013-04-30 03:27:00,51.1,46.7,30.32,NNE,23,1.0,3.0,85,0.00,,,0.00,0,Wunderground v.1.15,2013-04-30 07:27:00,
2013-04-30 03:32:00,51.0,46.6,30.32,NNE,23,2.0,2.0,85,0.00,,,0.00,0,Wunderground v.1.15,2013-04-30 07:32:00,
2013-04-30 03:37:00,50.8,46.8,30.32,NNE,28,1.0,4.0,86,0.00,,,0.00,0,Wunderground v.1.15,2013-04-30 07:37:00,
2013-04-30 03:42:00,50.8,46.8,30.32,NNE,28,0.0,2.0,86,0.00,,,0.00,0,Wunderground v.1.15,2013-04-30 07:42:00,
2013-04-30 03:47:00,50.8,46.8,30.32,NNE,28,0.0,2.0,86,0.00,,,0.00,0,Wunderground v.1.15,2013-04-30 07:47:00,
2013-04-30 03:52:00,50.7,47.0,30.32,NE,38,1.0,3.0,87,0.00,,,0.00,0,Wunderground v.1.15,2013-04-30 07:52:00,
2013-04-30 03:57:00,50.6,46.9,30.32,NE,38,1.0,3.0,87,0.00,,,0.00,0,Wunderground v.1.15,2013-04-30 07:57:00,
2013-04-30 04:02:00,50.6,46.9,30.32,NE,38,0.0,1.0,87,0.00,,,0.00,0,Wunderground v.1.15,2013-04-30 08:02:00,
2013-04-30 04:07:00,50.6,46.9,30.32,NE,38,0.0,2.0,87,0.00,,,0.00,0,Wunderground v.1.15,2013-04-30 08:07:00,
2013-04-30 04:12:00,50.6,46.9,30.32,NE,38,1.0,2.0,87,0.00,,,0.00,0,Wunderground v.1.15,2013-04-30 08:12:00,
2013-04-30 04:17:00,50.6,46.9,30.32,North,355,0.0,4.0,87,0.00,,,0.00,0,Wunderground v.1.15,2013-04-30 08:17:00,
2013-04-30 04:22:00,50.5,46.8,30.33,North,360,0.0,2.0,87,0.00,,,0.00,0,Wunderground v.1.15,2013-04-30 08:22:00,
2013-04-30 04:27:00,50.4,46.7,30.32,NE,42,0.0,3.0,87,0.00,,,0.00,0,Wunderground v.1.15,2013-04-30 08:27:00,
2013-04-30 04:32:00,50.3,46.6,30.32,NE,42,0.0,2.0,87,0.00,,,0.00,0,Wunderground v.1.15,2013-04-30 08:32:00,
2013-04-30 04:37:00,50.3,46.9,30.33,NE,38,0.0,2.0,88,0.00,,,0.00,0,Wunderground v.1.15,2013-04-30 08:37:00,
2013-04-30 04:42:00,50.2,46.8,30.33,NE,38,0.0,0.0,88,0.00,,,0.00,0,Wunderground v.1.15,2013-04-30 08:42:00,
2013-04-30 04:47:00,50.1,46.7,30.33,NE,38,1.0,3.0,88,0.00,,,0.00,0,Wunderground v.1.15,2013-04-30 08:47:00,
2013-04-30 04:52:00,50.2,46.8,30.33,NE,38,0.0,0.0,88,0.00,,,0.00,0,Wunderground v.1.15,2013-04-30 08:52:00,
2013-04-30 04:57:00,50.2,46.8,30.33,NE,38,0.0,1.0,88,0.00,,,0.00,0,Wunderground v.1.15,2013-04-30 08:57:00,
2013-04-30 05:02:00,50.1,46.7,30.33,NE,42,1.0,1.0,88,0.00,,,0.00,0,Wunderground v.1.15,2013-04-30 09:02:00,
2013-04-30 05:07:00,50.1,46.7,30.33,NE,42,0.0,2.0,88,0.00,,,0.00,0,Wunderground v.1.15,2013-04-30 09:07:00,
2013-04-30 05:12:00,50.2,46.8,30.33,NE,42,0.0,0.0,88,0.00,,,0.00,0,Wunderground v.1.15,2013-04-30 09:12:00,
2013-04-30 05:17:00,50.2,46.8,30.33,NE,42,0.0,1.0,88,0.00,,,0.00,0,Wunderground v.1.15,2013-04-30 09:17:00,
2013-04-30 05:22:00,50.1,46.7,30.33,NE,42,0.0,2.0,88,0.00,,,0.00,0,Wunderground v.1.15,2013-04-30 09:22:00,
2013-04-30 05:27:00,50.1,46.7,30.33,NNW,347,2.0,3.0,88,0.00,,,0.00,0,Wunderground v.1.15,2013-04-30 09:27:00,
2013-04-30 05:32:00,50.0,46.6,30.33,NNE,28,1.0,3.0,88,0.00,,,0.00,0,Wunderground v.1.15,2013-04-30 09:32:00,
2013-04-30 05:37:00,50.0,46.6,30.33,NE,34,1.0,3.0,88,0.00,,,0.00,0,Wunderground v.1.15,2013-04-30 09:37:00,
2013-04-30 05:42:00,50.0,46.6,30.34,NE,34,0.0,1.0,88,0.00,,,0.00,0,Wunderground v.1.15,2013-04-30 09:42:00,
2013-04-30 05:47:00,49.9,46.5,30.33,NE,38,0.0,2.0,88,0.00,,,0.00,0,Wunderground v.1.15,2013-04-30 09:47:00,
2013-04-30 05:52:00,49.8,46.7,30.34,NE,38,0.0,1.0,89,0.00,,,0.00,0,Wunderground v.1.15,2013-04-30 09:52:00,
2013-04-30 05:57:00,49.8,46.7,30.34,NE,38,0.0,1.0,89,0.00,,,0.00,0,Wunderground v.1.15,2013-04-30 09:57:00,
2013-04-30 06:02:00,49.8,46.7,30.34,NE,38,0.0,1.0,89,0.00,,,0.00,0,Wunderground v.1.15,2013-04-30 10:02:00,
2013-04-30 06:07:00,49.8,46.7,30.34,NE,38,0.0,2.0,89,0.00,,,0.00,5,Wunderground v.1.15,2013-04-30 10:07:00,
2013-04-30 06:12:00,49.8,46.4,30.34,NNE,31,0.0,1.0,88,0.00,,,0.00,9,Wunderground v.1.15,2013-04-30 10:12:00,
2013-04-30 06:17:00,49.8,46.4,30.34,ENE,73,0.0,3.0,88,0.00,,,0.00,11,Wunderground v.1.15,2013-04-30 10:17:00,
2013-04-30 06:22:00,49.9,46.2,30.34,ENE,57,0.0,2.0,87,0.00,,,0.00,14,Wunderground v.1.15,2013-04-30 10:22:00,
2013-04-30 06:27:00,49.9,46.2,30.34,ENE,57,1.0,2.0,87,0.00,,,0.00,19,Wunderground v.1.15,2013-04-30 10:27:00,
2013-04-30 06:32:00,50.0,46.3,30.35,NE,36,1.0,2.0,87,0.00,,,0.00,21,Wunderground v.1.15,2013-04-30 10:32:00,
2013-04-30 06:37:00,50.1,46.1,30.35,NE,36,1.0,2.0,86,0.00,,,0.00,26,Wunderground v.1.15,2013-04-30 10:37:00,
2013-04-30 06:42:00,50.1,46.1,30.35,NE,36,0.0,2.0,86,0.00,,,0.00,33,Wunderground v.1.15,2013-04-30 10:42:00,
2013-04-30 06:47:00,50.2,46.2,30.35,NE,36,0.0,2.0,86,0.00,,,0.00,39,Wunderground v.1.15,2013-04-30 10:47:00,
2013-04-30 06:52:00,50.3,46.3,30.35,NE,36,0.0,1.0,86,0.00,,,0.00,44,Wunderground v.1.15,2013-04-30 10:52:00,
2013-04-30 06:57:00,50.3,46.6,30.35,East,88,0.0,4.0,87,0.00,,,0.00,47,Wunderground v.1.15,2013-04-30 10:57:00,
2013-04-30 07:02:00,50.4,46.7,30.36,East,94,1.0,3.0,87,0.00,,,0.00,51,Wunderground v.1.15,2013-04-30 11:02:00,
2013-04-30 07:07:00,50.5,46.8,30.36,East,80,0.0,3.0,87,0.00,,,0.00,56,Wunderground v.1.15,2013-04-30 11:07:00,
2013-04-30 07:12:00,50.6,46.6,30.36,ENE,74,1.0,2.0,86,0.00,,,0.00,58,Wunderground v.1.15,2013-04-30 11:12:00,
2013-04-30 07:17:00,50.8,46.8,30.36,ENE,74,0.0,2.0,86,0.00,,,0.00,60,Wunderground v.1.15,2013-04-30 11:17:00,
2013-04-30 07:35:00,50.8,47.0,30.37,East,96,1.0,6.0,85,0.00,,,0.00,79,weatherlink.com 1.10,2013-04-30 11:35:00,
2013-04-30 07:50:00,51.0,46.0,30.37,ENE,71,1.0,5.0,84,0.00,,,0.00,105,weatherlink.com 1.10,2013-04-30 11:50:00,
2013-04-30 08:05:00,51.5,46.0,30.37,East,90,2.0,6.0,82,0.00,,,0.00,155,weatherlink.com 1.10,2013-04-30 12:05:00,
2013-04-30 08:20:00,52.3,46.0,30.38,NE,35,2.0,7.0,80,0.00,,,0.00,188,weatherlink.com 1.10,2013-04-30 12:20:00,
2013-04-30 08:35:00,53.4,47.0,30.38,East,82,2.0,6.0,78,0.00,,,0.00,225,weatherlink.com 1.10,2013-04-30 12:35:00,
2013-04-30 08:50:00,53.4,47.0,30.39,ESE,105,4.0,5.0,78,0.00,,,0.00,264,weatherlink.com 1.10,2013-04-30 12:50:00,
2013-04-30 09:05:00,54.5,47.0,30.39,NE,49,1.0,4.0,76,0.00,,,0.00,297,weatherlink.com 1.10,2013-04-30 13:05:00,
2013-04-30 09:20:00,54.6,48.0,30.39,East,86,6.0,6.0,77,0.00,,,0.00,343,weatherlink.com 1.10,2013-04-30 13:20:00,
2013-04-30 09:30:00,55.4,48.3,30.39,ENE,74,1.0,1.0,77,0.00,,,0.00,464,Wunderground v.1.15,2013-04-30 13:30:00,
2013-04-30 09:35:00,55.7,47.9,30.39,NNE,25,4.0,7.0,75,0.00,,,0.00,591,Wunderground v.1.15,2013-04-30 13:35:00,
2013-04-30 09:40:00,54.6,47.2,30.39,North,9,3.0,6.0,76,0.00,,,0.00,501,Wunderground v.1.15,2013-04-30 13:40:00,
2013-04-30 09:45:00,55.3,47.9,30.40,ENE,59,2.0,6.0,76,0.00,,,0.00,355,Wunderground v.1.15,2013-04-30 13:45:00,
2013-04-30 09:50:00,55.8,48.0,30.40,NE,50,2.0,4.0,75,0.00,,,0.00,643,Wunderground v.1.15,2013-04-30 13:50:00,
2013-04-30 09:55:00,56.0,48.2,30.40,East,88,0.0,4.0,75,0.00,,,0.00,436,Wunderground v.1.15,2013-04-30 13:55:00,
2013-04-30 10:00:00,57.1,48.5,30.40,NW,315,2.0,2.0,73,0.00,,,0.00,891,Wunderground v.1.15,2013-04-30 14:00:00,
2013-04-30 10:05:00,57.1,48.5,30.40,North,11,1.0,8.0,73,0.00,,,0.00,536,Wunderground v.1.15,2013-04-30 14:05:00,
2013-04-30 10:10:00,58.0,49.4,30.40,NE,51,4.0,8.0,73,0.00,,,0.00,621,Wunderground v.1.15,2013-04-30 14:10:00,
2013-04-30 10:15:00,58.0,48.6,30.40,NNW,342,1.0,3.0,71,0.00,,,0.00,552,Wunderground v.1.15,2013-04-30 14:15:00,
2013-04-30 10:20:00,58.0,48.3,30.40,NNE,27,3.0,5.0,70,0.00,,,0.00,513,Wunderground v.1.15,2013-04-30 14:20:00,
2013-04-30 10:25:00,57.2,47.1,30.40,NNE,18,2.0,5.0,69,0.00,,,0.00,531,Wunderground v.1.15,2013-04-30 14:25:00,
2013-04-30 10:30:00,57.1,47.8,30.40,NNE,26,4.0,7.0,71,0.00,,,0.00,543,Wunderground v.1.15,2013-04-30 14:30:00,
2013-04-30 10:35:00,57.1,47.4,30.40,East,90,2.0,6.0,70,0.00,,,0.00,531,Wunderground v.1.15,2013-04-30 14:35:00,
2013-04-30 10:40:00,56.5,47.2,30.40,ESE,116,4.0,7.0,71,0.00,,,0.00,550,Wunderground v.1.15,2013-04-30 14:40:00,
2013-04-30 10:45:00,55.7,46.8,30.40,East,92,2.0,8.0,72,0.00,,,0.00,468,Wunderground v.1.15,2013-04-30 14:45:00,
2013-04-30 10:50:00,55.7,47.2,30.40,NNE,13,4.0,8.0,73,0.00,,,0.00,612,Wunderground v.1.15,2013-04-30 14:50:00,
2013-04-30 10:55:00,57.3,47.6,30.40,NE,46,5.0,5.0,70,0.00,,,0.00,624,Wunderground v.1.15,2013-04-30 14:55:00,
2013-04-30 11:00:00,57.7,48.0,30.40,NE,38,5.0,7.0,70,0.00,,,0.00,902,Wunderground v.1.15,2013-04-30 15:00:00,
2013-04-30 11:05:00,58.1,47.6,30.40,NNE,24,4.0,7.0,68,0.00,,,0.00,830,Wunderground v.1.15,2013-04-30 15:05:00,
2013-04-30 11:10:00,58.6,48.1,30.40,North,5,1.0,9.0,68,0.00,,,0.00,821,Wunderground v.1.15,2013-04-30 15:10:00,
2013-04-30 11:15:00,59.3,47.9,30.40,ESE,104,2.0,7.0,66,0.00,,,0.00,824,Wunderground v.1.15,2013-04-30 15:15:00,
2013-04-30 11:20:00,59.6,48.6,30.40,ENE,65,4.0,9.0,67,0.00,,,0.00,830,Wunderground v.1.15,2013-04-30 15:20:00,
2013-04-30 11:25:00,60.6,48.8,30.40,NNE,26,3.0,8.0,65,0.00,,,0.00,835,Wunderground v.1.15,2013-04-30 15:25:00,
2013-04-30 11:30:00,61.1,48.4,30.40,NW,317,0.0,8.0,63,0.00,,,0.00,842,Wunderground v.1.15,2013-04-30 15:30:00,
2013-04-30 11:35:00,61.3,47.7,30.40,NE,54,2.0,7.0,61,0.00,,,0.00,847,Wunderground v.1.15,2013-04-30 15:35:00,
2013-04-30 11:40:00,61.1,48.0,30.40,ESE,122,1.0,7.0,62,0.00,,,0.00,854,Wunderground v.1.15,2013-04-30 15:40:00,
2013-04-30 11:45:00,61.7,48.5,30.40,East,92,5.0,7.0,62,0.00,,,0.00,858,Wunderground v.1.15,2013-04-30 15:45:00,
2013-04-30 11:50:00,61.4,48.3,30.40,East,92,6.0,7.0,62,0.00,,,0.00,865,Wunderground v.1.15,2013-04-30 15:50:00,
2013-04-30 11:55:00,62.5,48.9,30.39,North,10,3.0,8.0,61,0.00,,,0.00,875,Wunderground v.1.15,2013-04-30 15:55:00,
2013-04-30 12:00:00,62.0,48.0,30.40,NE,34,2.0,8.0,60,0.00,,,0.00,882,Wunderground v.1.15,2013-04-30 16:00:00,
2013-04-30 12:05:00,62.2,48.6,30.39,East,90,2.0,5.0,61,0.00,,,0.00,847,Wunderground v.1.15,2013-04-30 16:05:00,
2013-04-30 12:10:00,63.4,48.8,30.39,ESE,115,2.0,3.0,59,0.00,,,0.00,860,Wunderground v.1.15,2013-04-30 16:10:00,
2013-04-30 12:15:00,62.2,47.2,30.40,SE,128,2.0,7.0,58,0.00,,,0.00,882,Wunderground v.1.15,2013-04-30 16:15:00,
2013-04-30 12:20:00,62.8,47.8,30.40,ENE,63,7.0,7.0,58,0.00,,,0.00,889,Wunderground v.1.15,2013-04-30 16:20:00,
2013-04-30 12:26:00,64.1,48.1,30.40,ESE,103,2.0,7.0,56,0.00,,,0.00,888,Wunderground v.1.15,2013-04-30 16:26:00,
2013-04-30 12:31:00,63.4,46.0,30.39,ENE,76,5.0,5.0,53,0.00,,,0.00,858,Wunderground v.1.15,2013-04-30 16:31:00,
2013-04-30 12:36:00,63.4,46.9,30.39,NE,53,1.0,6.0,55,0.00,,,0.00,870,Wunderground v.1.15,2013-04-30 16:36:00,
2013-04-30 12:41:00,63.4,46.0,30.39,East,100,3.0,5.0,53,0.00,,,0.00,900,Wunderground v.1.15,2013-04-30 16:41:00,
2013-04-30 12:46:00,64.3,46.3,30.39,East,81,5.0,9.0,52,0.00,,,0.00,904,Wunderground v.1.15,2013-04-30 16:46:00,
2013-04-30 12:51:00,64.1,46.1,30.39,ESE,121,5.0,5.0,52,0.00,,,0.00,918,Wunderground v.1.15,2013-04-30 16:51:00,
2013-04-30 12:56:00,63.9,46.4,30.39,NE,52,2.0,7.0,53,0.00,,,0.00,916,Wunderground v.1.15,2013-04-30 16:56:00,
2013-04-30 13:01:00,63.4,46.0,30.39,NE,34,2.0,5.0,53,0.00,,,0.00,898,Wunderground v.1.15,2013-04-30 17:01:00,
2013-04-30 13:06:00,65.2,47.1,30.39,North,11,2.0,7.0,52,0.00,,,0.00,925,Wunderground v.1.15,2013-04-30 17:06:00,
2013-04-30 13:11:00,64.2,46.2,30.38,ENE,60,2.0,5.0,52,0.00,,,0.00,925,Wunderground v.1.15,2013-04-30 17:11:00,
2013-04-30 13:16:00,64.4,45.3,30.39,ENE,57,2.0,7.0,50,0.00,,,0.00,846,Wunderground v.1.15,2013-04-30 17:16:00,
2013-04-30 13:21:00,63.7,45.2,30.38,East,81,1.0,4.0,51,0.00,,,0.00,914,Wunderground v.1.15,2013-04-30 17:21:00,
2013-04-30 13:26:00,64.4,45.3,30.38,SSW,210,0.0,6.0,50,0.00,,,0.00,851,Wunderground v.1.15,2013-04-30 17:26:00,
2013-04-30 13:31:00,66.5,44.5,30.38,East,96,3.0,5.0,45,0.00,,,0.00,842,Wunderground v.1.15,2013-04-30 17:31:00,
2013-04-30 13:36:00,64.8,45.2,30.38,NE,52,1.0,7.0,49,0.00,,,0.00,877,Wunderground v.1.15,2013-04-30 17:36:00,
2013-04-30 13:41:00,65.1,40.2,30.38,NE,40,2.0,5.0,40,0.00,,,0.00,661,Wunderground v.1.15,2013-04-30 17:41:00,
2013-04-30 13:46:00,64.9,42.5,30.38,North,355,2.0,5.0,44,0.00,,,0.00,729,Wunderground v.1.15,2013-04-30 17:46:00,
2013-04-30 13:52:00,66.1,32.9,30.38,North,355,2.0,4.0,29,0.00,,,0.00,482,Wunderground v.1.15,2013-04-30 17:52:00,
2013-04-30 13:57:00,66.1,41.7,30.38,SE,143,3.0,5.0,41,0.00,,,0.00,436,Wunderground v.1.15,2013-04-30 17:57:00,
2013-04-30 14:02:00,66.4,38.6,30.38,NE,56,2.0,3.0,36,0.00,,,0.00,367,Wunderground v.1.15,2013-04-30 18:02:00,
2013-04-30 14:07:00,66.2,39.1,30.38,NE,34,1.0,4.0,37,0.00,,,0.00,399,Wunderground v.1.15,2013-04-30 18:07:00,
2013-04-30 14:12:00,65.6,40.0,30.38,ENE,65,2.0,3.0,39,0.00,,,0.00,292,Wunderground v.1.15,2013-04-30 18:12:00,
2013-04-30 14:17:00,64.9,42.5,30.38,ENE,63,2.0,9.0,44,0.00,,,0.00,279,Wunderground v.1.15,2013-04-30 18:17:00,
2013-04-30 14:22:00,65.1,27.4,30.38,NE,42,0.0,4.0,24,0.00,,,0.00,429,Wunderground v.1.15,2013-04-30 18:22:00,
2013-04-30 14:27:00,65.8,28.0,30.38,ENE,68,0.0,4.0,24,0.00,,,0.00,659,Wunderground v.1.15,2013-04-30 18:27:00,
2013-04-30 14:32:00,66.3,29.4,30.39,ENE,73,2.0,4.0,25,0.00,,,0.00,584,Wunderground v.1.15,2013-04-30 18:32:00,
2013-04-30 14:37:00,65.9,25.9,30.39,SSW,207,0.0,6.0,22,0.00,,,0.00,508,Wunderground v.1.15,2013-04-30 18:37:00,
2013-04-30 14:42:00,65.8,28.0,30.39,ENE,63,1.0,8.0,24,0.00,,,0.00,272,Wunderground v.1.15,2013-04-30 18:42:00,
2013-04-30 14:47:00,65.6,27.8,30.39,West,268,2.0,8.0,24,0.00,,,0.00,334,Wunderground v.1.15,2013-04-30 18:47:00,
2013-04-30 14:52:00,65.8,29.0,30.39,ENE,74,1.0,5.0,25,0.00,,,0.00,359,Wunderground v.1.15,2013-04-30 18:52:00,
2013-04-30 14:57:00,65.7,27.9,30.39,SE,146,2.0,7.0,24,0.00,,,0.00,151,Wunderground v.1.15,2013-04-30 18:57:00,
2013-04-30 15:02:00,65.5,26.7,30.39,ESE,104,1.0,4.0,23,0.00,,,0.00,204,Wunderground v.1.15,2013-04-30 19:02:00,
2013-04-30 15:07:00,65.6,24.6,30.39,ENE,57,2.0,7.0,21,0.00,,,0.00,223,Wunderground v.1.15,2013-04-30 19:07:00,
2013-04-30 15:12:00,65.6,26.8,30.39,SE,136,1.0,6.0,23,0.00,,,0.00,97,Wunderground v.1.15,2013-04-30 19:12:00,
2013-04-30 15:17:00,66.2,30.3,30.40,NE,49,3.0,7.0,26,0.00,,,0.00,118,Wunderground v.1.15,2013-04-30 19:17:00,
2013-04-30 15:22:00,66.1,28.2,30.39,SSE,168,1.0,2.0,24,0.00,,,0.00,84,Wunderground v.1.15,2013-04-30 19:22:00,
2013-04-30 15:27:00,65.4,28.6,30.39,South,184,3.0,5.0,25,0.00,,,0.00,98,Wunderground v.1.15,2013-04-30 19:27:00,
2013-04-30 15:32:00,65.8,28.0,30.39,SE,136,1.0,3.0,24,0.00,,,0.00,139,Wunderground v.1.15,2013-04-30 19:32:00,
2013-04-30 15:37:00,65.0,27.3,30.39,NE,43,3.0,7.0,24,0.00,,,0.00,176,Wunderground v.1.15,2013-04-30 19:37:00,
2013-04-30 15:42:00,65.7,26.9,30.39,NW,306,1.0,2.0,23,0.00,,,0.00,221,Wunderground v.1.15,2013-04-30 19:42:00,
2013-04-30 15:47:00,65.2,24.2,30.39,SSE,165,1.0,3.0,21,0.00,,,0.00,276,Wunderground v.1.15,2013-04-30 19:47:00,
2013-04-30 15:52:00,65.1,26.3,30.39,NE,50,3.0,4.0,23,0.00,,,0.00,605,Wunderground v.1.15,2013-04-30 19:52:00,
2013-04-30 15:57:00,65.6,25.7,30.39,West,271,1.0,6.0,22,0.00,,,0.00,339,Wunderground v.1.15,2013-04-30 19:57:00,
2013-04-30 16:03:00,65.3,25.4,30.39,East,98,3.0,3.0,22,0.00,,,0.00,346,Wunderground v.1.15,2013-04-30 20:03:00,
2013-04-30 16:08:00,64.8,27.1,30.39,East,98,3.0,5.0,24,0.00,,,0.00,84,Wunderground v.1.15,2013-04-30 20:08:00,
2013-04-30 16:13:00,64.9,27.2,30.39,ENE,73,1.0,3.0,24,0.00,,,0.00,139,Wunderground v.1.15,2013-04-30 20:13:00,
2013-04-30 16:18:00,64.8,26.1,30.39,ENE,60,2.0,7.0,23,0.00,,,0.00,56,Wunderground v.1.15,2013-04-30 20:18:00,
2013-04-30 16:23:00,64.3,25.7,30.39,SW,218,0.0,5.0,23,0.00,,,0.00,81,Wunderground v.1.15,2013-04-30 20:23:00,
2013-04-30 16:28:00,64.9,27.2,30.39,East,88,5.0,5.0,24,0.00,,,0.00,62,Wunderground v.1.15,2013-04-30 20:28:00,
2013-04-30 16:33:00,64.6,27.0,30.39,ESE,107,1.0,4.0,24,0.00,,,0.00,220,Wunderground v.1.15,2013-04-30 20:33:00,
2013-04-30 16:38:00,64.5,26.9,30.39,SW,230,2.0,4.0,24,0.00,,,0.00,255,Wunderground v.1.15,2013-04-30 20:38:00,
2013-04-30 16:43:00,64.7,24.9,30.40,South,186,2.0,3.0,22,0.00,,,0.00,135,Wunderground v.1.15,2013-04-30 20:43:00,
2013-04-30 16:48:00,64.6,25.9,30.40,SSE,150,0.0,3.0,23,0.00,,,0.00,262,Wunderground v.1.15,2013-04-30 20:48:00,
2013-04-30 16:53:00,64.3,26.7,30.40,ENE,68,0.0,3.0,24,0.00,,,0.00,141,Wunderground v.1.15,2013-04-30 20:53:00,
2013-04-30 16:58:00,64.3,27.7,30.40,ENE,76,1.0,3.0,25,0.00,,,0.00,56,Wunderground v.1.15,2013-04-30 20:58:00,
2013-04-30 17:03:00,64.5,25.8,30.40,ESE,123,2.0,3.0,23,0.00,,,0.00,197,Wunderground v.1.15,2013-04-30 21:03:00,
2013-04-30 17:08:00,64.2,25.6,30.40,East,90,2.0,5.0,23,0.00,,,0.00,79,Wunderground v.1.15,2013-04-30 21:08:00,
2013-04-30 17:13:00,63.8,25.3,30.40,SW,234,0.0,5.0,23,0.00,,,0.00,47,Wunderground v.1.15,2013-04-30 21:13:00,
2013-04-30 17:19:00,63.8,27.3,30.40,East,82,2.0,7.0,25,0.00,,,0.00,63,Wunderground v.1.15,2013-04-30 21:19:00,
2013-04-30 17:24:00,63.3,25.9,30.40,SSW,200,1.0,3.0,24,0.00,,,0.00,51,Wunderground v.1.15,2013-04-30 21:24:00,
2013-04-30 17:30:00,63.4,26.9,30.40,SE,134,0.0,4.0,25,0.00,,,0.00,54,Wunderground v.1.15,2013-04-30 21:30:00,
2013-04-30 17:35:00,63.4,25.9,30.40,South,188,0.0,3.0,24,0.00,,,0.00,63,Wunderground v.1.15,2013-04-30 21:35:00,
2013-04-30 17:40:00,63.6,27.1,30.40,SSE,151,0.0,5.0,25,0.00,,,0.00,97,Wunderground v.1.15,2013-04-30 21:40:00,
2013-04-30 17:45:00,63.5,27.0,30.40,SSE,148,0.0,4.0,25,0.00,,,0.00,65,Wunderground v.1.15,2013-04-30 21:45:00,
2013-04-30 17:50:00,63.4,27.9,30.40,SSE,156,0.0,4.0,26,0.00,,,0.00,105,Wunderground v.1.15,2013-04-30 21:50:00,
2013-04-30 17:55:00,63.1,24.7,30.41,East,94,2.0,6.0,23,0.00,,,0.00,211,Wunderground v.1.15,2013-04-30 21:55:00,
2013-04-30 18:00:00,62.5,26.2,30.41,SSW,205,0.0,6.0,25,0.00,,,0.00,42,Wunderground v.1.15,2013-04-30 22:00:00,
2013-04-30 18:05:00,62.2,26.9,30.41,South,185,2.0,4.0,26,0.00,,,0.00,65,Wunderground v.1.15,2013-04-30 22:05:00,
2013-04-30 18:10:00,62.2,25.9,30.41,South,184,3.0,4.0,25,0.00,,,0.00,125,Wunderground v.1.15,2013-04-30 22:10:00,
2013-04-30 18:15:00,62.1,26.8,30.41,South,182,0.0,3.0,26,0.00,,,0.00,114,Wunderground v.1.15,2013-04-30 22:15:00,
2013-04-30 18:20:00,61.9,26.6,30.41,South,179,1.0,3.0,26,0.00,,,0.00,181,Wunderground v.1.15,2013-04-30 22:20:00,
2013-04-30 18:25:00,61.7,27.3,30.41,SSW,205,2.0,4.0,27,0.00,,,0.00,37,Wunderground v.1.15,2013-04-30 22:25:00,
2013-04-30 18:30:00,61.4,27.1,30.41,South,178,1.0,4.0,27,0.00,,,0.00,86,Wunderground v.1.15,2013-04-30 22:30:00,
2013-04-30 18:35:00,61.4,28.0,30.41,South,178,3.0,3.0,28,0.00,,,0.00,53,Wunderground v.1.15,2013-04-30 22:35:00,
2013-04-30 18:40:00,61.3,27.9,30.41,SSE,151,1.0,3.0,28,0.00,,,0.00,76,Wunderground v.1.15,2013-04-30 22:40:00,
2013-04-30 18:45:00,61.0,27.6,30.41,SSE,167,0.0,3.0,28,0.00,,,0.00,47,Wunderground v.1.15,2013-04-30 22:45:00,
2013-04-30 18:50:00,60.7,28.2,30.41,South,174,0.0,3.0,29,0.00,,,0.00,25,Wunderground v.1.15,2013-04-30 22:50:00,
2013-04-30 18:55:00,60.2,27.8,30.41,South,176,0.0,3.0,29,0.00,,,0.00,21,Wunderground v.1.15,2013-04-30 22:55:00,
2013-04-30 19:00:00,59.8,27.4,30.41,South,182,1.0,3.0,29,0.00,,,0.00,32,Wunderground v.1.15,2013-04-30 23:00:00,
2013-04-30 19:05:00,59.5,27.2,30.41,South,181,0.0,3.0,29,0.00,,,0.00,26,Wunderground v.1.15,2013-04-30 23:05:00,
2013-04-30 19:10:00,59.3,27.0,30.41,South,181,0.0,3.0,29,0.00,,,0.00,21,Wunderground v.1.15,2013-04-30 23:10:00,
2013-04-30 19:15:00,59.1,27.7,30.41,South,181,0.0,1.0,30,0.00,,,0.00,19,Wunderground v.1.15,2013-04-30 23:15:00,
2013-04-30 19:20:00,58.8,28.2,30.41,SSE,164,0.0,1.0,31,0.00,,,0.00,16,Wunderground v.1.15,2013-04-30 23:20:00,
2013-04-30 19:25:00,58.5,27.9,30.41,SSE,163,0.0,3.0,31,0.00,,,0.00,14,Wunderground v.1.15,2013-04-30 23:25:00,
2013-04-30 19:30:00,58.1,28.4,30.41,SSE,163,0.0,1.0,32,0.00,,,0.00,11,Wunderground v.1.15,2013-04-30 23:30:00,
2013-04-30 19:35:00,57.7,28.8,30.41,SSE,163,0.0,1.0,33,0.00,,,0.00,9,Wunderground v.1.15,2013-04-30 23:35:00,
2013-04-30 19:40:00,57.3,27.7,30.42,SSE,163,0.0,0.0,32,0.00,,,0.00,5,Wunderground v.1.15,2013-04-30 23:40:00,
2013-04-30 19:45:00,57.0,28.1,30.42,SSE,163,0.0,2.0,33,0.00,,,0.00,0,Wunderground v.1.15,2013-04-30 23:45:00,
2013-04-30 19:51:00,56.7,29.3,30.41,SSE,163,0.0,0.0,35,0.00,,,0.00,0,Wunderground v.1.15,2013-04-30 23:51:00,
2013-04-30 19:56:00,56.3,28.3,30.41,SSE,163,0.0,1.0,34,0.00,,,0.00,0,Wunderground v.1.15,2013-04-30 23:56:00,
2013-04-30 20:01:00,56.0,28.0,30.41,South,169,0.0,1.0,34,0.00,,,0.00,0,Wunderground v.1.15,2013-05-01 00:01:00,
2013-04-30 20:06:00,55.7,29.1,30.42,South,169,0.0,1.0,36,0.00,,,0.00,0,Wunderground v.1.15,2013-05-01 00:06:00,
2013-04-30 20:11:00,55.3,30.1,30.42,South,169,0.0,0.0,38,0.00,,,0.00,0,Wunderground v.1.15,2013-05-01 00:11:00,
2013-04-30 20:16:00,55.0,31.1,30.42,South,169,0.0,0.0,40,0.00,,,0.00,0,Wunderground v.1.15,2013-05-01 00:16:00,
2013-04-30 20:21:00,54.7,28.9,30.42,South,169,0.0,0.0,37,0.00,,,0.00,0,Wunderground v.1.15,2013-05-01 00:21:00,
2013-04-30 20:26:00,54.4,29.3,30.42,South,169,0.0,0.0,38,0.00,,,0.00,0,Wunderground v.1.15,2013-05-01 00:26:00,
2013-04-30 20:31:00,54.1,29.7,30.42,South,169,0.0,0.0,39,0.00,,,0.00,0,Wunderground v.1.15,2013-05-01 00:31:00,
2013-04-30 20:36:00,53.7,31.1,30.42,South,169,0.0,0.0,42,0.00,,,0.00,0,Wunderground v.1.15,2013-05-01 00:36:00,
2013-04-30 20:41:00,53.3,30.8,30.42,South,169,0.0,0.0,42,0.00,,,0.00,0,Wunderground v.1.15,2013-05-01 00:41:00,
2013-04-30 20:46:00,53.0,31.1,30.42,South,169,0.0,0.0,43,0.00,,,0.00,0,Wunderground v.1.15,2013-05-01 00:46:00,
2013-04-30 20:51:00,52.5,31.2,30.42,South,169,0.0,0.0,44,0.00,,,0.00,0,Wunderground v.1.15,2013-05-01 00:51:00,
2013-04-30 20:56:00,52.2,30.9,30.42,South,169,0.0,0.0,44,0.00,,,0.00,0,Wunderground v.1.15,2013-05-01 00:56:00,
2013-04-30 21:01:00,51.9,31.7,30.43,South,169,0.0,0.0,46,0.00,,,0.00,0,Wunderground v.1.15,2013-05-01 01:01:00,
2013-04-30 21:06:00,51.6,32.0,30.42,South,169,0.0,0.0,47,0.00,,,0.00,0,Wunderground v.1.15,2013-05-01 01:06:00,
2013-04-30 21:11:00,51.3,32.3,30.43,South,169,0.0,0.0,48,0.00,,,0.00,0,Wunderground v.1.15,2013-05-01 01:11:00,
2013-04-30 21:16:00,51.2,32.2,30.43,South,169,0.0,0.0,48,0.00,,,0.00,0,Wunderground v.1.15,2013-05-01 01:16:00,
2013-04-30 21:21:00,51.0,32.0,30.43,South,169,0.0,0.0,48,0.00,,,0.00,0,Wunderground v.1.15,2013-05-01 01:21:00,
2013-04-30 21:26:00,51.1,32.1,30.43,South,169,0.0,0.0,48,0.00,,,0.00,0,Wunderground v.1.15,2013-05-01 01:26:00,
2013-04-30 21:31:00,50.8,32.8,30.43,South,169,0.0,0.0,50,0.00,,,0.00,0,Wunderground v.1.15,2013-05-01 01:31:00,
2013-04-30 21:36:00,50.3,32.8,30.43,South,169,0.0,0.0,51,0.00,,,0.00,0,Wunderground v.1.15,2013-05-01 01:36:00,
2013-04-30 21:41:00,50.0,33.1,30.43,South,169,0.0,0.0,52,0.00,,,0.00,0,Wunderground v.1.15,2013-05-01 01:41:00,
2013-04-30 21:46:00,49.7,32.8,30.43,South,169,0.0,0.0,52,0.00,,,0.00,0,Wunderground v.1.15,2013-05-01 01:46:00,
2013-04-30 21:51:00,49.4,32.5,30.43,South,169,0.0,0.0,52,0.00,,,0.00,0,Wunderground v.1.15,2013-05-01 01:51:00,
2013-04-30 21:56:00,49.2,32.8,30.43,South,169,0.0,0.0,53,0.00,,,0.00,0,Wunderground v.1.15,2013-05-01 01:56:00,
2013-04-30 22:01:00,49.1,33.2,30.43,South,169,0.0,0.0,54,0.00,,,0.00,0,Wunderground v.1.15,2013-05-01 02:01:00,
2013-04-30 22:06:00,49.0,33.1,30.43,South,169,0.0,0.0,54,0.00,,,0.00,0,Wunderground v.1.15,2013-05-01 02:06:00,
2013-04-30 22:11:00,48.9,33.4,30.43,South,169,0.0,0.0,55,0.00,,,0.00,0,Wunderground v.1.15,2013-05-01 02:11:00,
2013-04-30 22:16:00,48.8,33.3,30.43,South,169,0.0,0.0,55,0.00,,,0.00,0,Wunderground v.1.15,2013-05-01 02:16:00,
2013-04-30 22:21:00,48.7,33.7,30.43,South,169,0.0,0.0,56,0.00,,,0.00,0,Wunderground v.1.15,2013-05-01 02:21:00,
2013-04-30 22:26:00,48.3,33.3,30.43,South,169,0.0,0.0,56,0.00,,,0.00,0,Wunderground v.1.15,2013-05-01 02:26:00,
2013-04-30 22:31:00,48.0,33.0,30.43,South,169,0.0,0.0,56,0.00,,,0.00,0,Wunderground v.1.15,2013-05-01 02:31:00,
2013-04-30 22:36:00,47.8,33.3,30.43,South,169,0.0,0.0,57,0.00,,,0.00,0,Wunderground v.1.15,2013-05-01 02:36:00,
2013-04-30 22:41:00,47.7,33.2,30.42,South,169,0.0,0.0,57,0.00,,,0.00,0,Wunderground v.1.15,2013-05-01 02:41:00,
2013-04-30 22:46:00,47.6,33.5,30.42,South,169,0.0,0.0,58,0.00,,,0.00,0,Wunderground v.1.15,2013-05-01 02:46:00,
2013-04-30 22:51:00,47.5,33.4,30.42,South,169,0.0,0.0,58,0.00,,,0.00,0,Wunderground v.1.15,2013-05-01 02:51:00,
2013-04-30 22:56:00,47.4,33.8,30.42,South,169,0.0,0.0,59,0.00,,,0.00,0,Wunderground v.1.15,2013-05-01 02:56:00,
2013-04-30 23:01:00,47.2,34.0,30.42,South,169,0.0,0.0,60,0.00,,,0.00,0,Wunderground v.1.15,2013-05-01 03:01:00,
2013-04-30 23:06:00,47.1,33.1,30.42,South,169,0.0,0.0,58,0.00,,,0.00,0,Wunderground v.1.15,2013-05-01 03:06:00,
2013-04-30 23:11:00,47.2,33.2,30.42,South,169,0.0,0.0,58,0.00,,,0.00,0,Wunderground v.1.15,2013-05-01 03:11:00,
2013-04-30 23:16:00,47.2,33.2,30.42,South,169,0.0,0.0,58,0.00,,,0.00,0,Wunderground v.1.15,2013-05-01 03:16:00,
2013-04-30 23:21:00,47.1,33.1,30.42,South,169,0.0,0.0,58,0.00,,,0.00,0,Wunderground v.1.15,2013-05-01 03:21:00,
2013-04-30 23:26:00,47.0,32.5,30.42,South,169,0.0,0.0,57,0.00,,,0.00,0,Wunderground v.1.15,2013-05-01 03:26:00,
2013-04-30 23:31:00,46.9,32.9,30.43,South,169,0.0,0.0,58,0.00,,,0.00,0,Wunderground v.1.15,2013-05-01 03:31:00,
2013-04-30 23:36:00,46.9,32.9,30.43,South,169,0.0,0.0,58,0.00,,,0.00,0,Wunderground v.1.15,2013-05-01 03:36:00,
2013-04-30 23:41:00,46.8,33.2,30.42,South,169,0.0,0.0,59,0.00,,,0.00,0,Wunderground v.1.15,2013-05-01 03:41:00,
2013-04-30 23:46:00,46.8,32.8,30.42,South,169,0.0,0.0,58,0.00,,,0.00,0,Wunderground v.1.15,2013-05-01 03:46:00,
2013-04-30 23:51:00,46.6,33.0,30.43,South,169,0.0,0.0,59,0.00,,,0.00,0,Wunderground v.1.15,2013-05-01 03:51:00,
2013-04-30 23:56:00,46.6,33.4,30.43,South,169,0.0,0.0,60,0.00,,,0.00,0,Wunderground v.1.15,2013-05-01 03:56:00,